Time,TemperatureF,DewpointF,PressureIn,WindDirection,WindDirectionDegrees,WindSpeedMPH,WindSpeedGustMPH,Humidity,HourlyPrecipIn,Conditions,Clouds,dailyrainin,SoftwareType,DateUTC
2013-03-15 00:05:00,52.3,30.2,29.32,SE,135,6.0,7.0,43,0.00,,,0.00,WeatherTracker,2013-03-15 05:05:00,
2013-03-15 00:15:00,52.3,30.2,29.32,SE,135,6.0,7.0,43,0.00,,,0.00,WeatherTracker,2013-03-15 05:15:00,
2013-03-15 00:20:00,52.2,30.2,29.32,SE,135,6.0,7.0,43,0.00,,,0.00,WeatherTracker,2013-03-15 05:20:00,
2013-03-15 00:30:00,52.2,30.2,29.32,SE,135,6.0,7.0,43,0.00,,,0.00,WeatherTracker,2013-03-15 05:30:00,
2013-03-15 00:35:00,52.9,32.0,29.32,SE,135,6.0,7.0,44,0.00,,,0.00,WeatherTracker,2013-03-15 05:35:00,
2013-03-15 00:40:00,53.8,33.8,29.32,SE,135,6.0,7.0,45,0.00,,,0.00,WeatherTracker,2013-03-15 05:40:00,
2013-03-15 00:50:00,54.7,33.8,29.32,SE,135,6.0,7.0,45,0.00,,,0.00,WeatherTracker,2013-03-15 05:50:00,
2013-03-15 00:55:00,54.9,33.8,29.32,SE,135,6.0,7.0,45,0.00,,,0.00,WeatherTracker,2013-03-15 05:55:00,
2013-03-15 01:05:00,56.3,37.4,29.29,SE,135,6.0,7.0,46,0.00,,,0.00,WeatherTracker,2013-03-15 06:05:00,
2013-03-15 01:10:00,56.8,37.4,29.29,SE,135,6.0,7.0,46,0.00,,,0.00,WeatherTracker,2013-03-15 06:10:00,
2013-03-15 01:15:00,57.2,37.4,29.29,SE,135,6.0,7.0,45,0.00,,,0.00,WeatherTracker,2013-03-15 06:15:00,
2013-03-15 01:25:00,57.2,35.6,29.29,SE,135,6.0,7.0,44,0.00,,,0.00,WeatherTracker,2013-03-15 06:25:00,
2013-03-15 01:30:00,57.0,35.6,29.29,SE,135,6.0,7.0,44,0.00,,,0.00,WeatherTracker,2013-03-15 06:30:00,
2013-03-15 01:40:00,56.8,35.6,29.29,SE,135,6.0,7.0,44,0.00,,,0.00,WeatherTracker,2013-03-15 06:40:00,
2013-03-15 01:45:00,56.5,33.8,29.29,SE,135,6.0,7.0,43,0.00,,,0.00,WeatherTracker,2013-03-15 06:45:00,
2013-03-15 01:50:00,56.3,33.8,29.29,SE,135,6.0,7.0,43,0.00,,,0.00,WeatherTracker,2013-03-15 06:50:00,
2013-03-15 02:00:00,55.9,35.6,29.29,SE,135,6.0,7.0,44,0.00,,,0.00,WeatherTracker,2013-03-15 07:00:00,
2013-03-15 02:05:00,55.9,35.6,29.29,SE,135,6.0,7.0,44,0.00,,,0.00,WeatherTracker,2013-03-15 07:05:00,
2013-03-15 02:15:00,54.7,33.8,29.29,SE,135,6.0,7.0,44,0.00,,,0.00,WeatherTracker,2013-03-15 07:15:00,
2013-03-15 02:25:00,52.3,32.0,29.29,SE,135,6.0,7.0,46,0.00,,,0.00,WeatherTracker,2013-03-15 07:25:00,
2013-03-15 02:35:00,50.9,32.0,29.29,SE,135,6.0,7.0,48,0.00,,,0.00,WeatherTracker,2013-03-15 07:35:00,
2013-03-15 02:40:00,50.4,32.0,29.29,SE,135,6.0,7.0,48,0.00,,,0.00,WeatherTracker,2013-03-15 07:40:00,
2013-03-15 02:50:00,49.6,32.0,29.29,SE,135,6.0,7.0,50,0.00,,,0.00,WeatherTracker,2013-03-15 07:50:00,
2013-03-15 02:55:00,49.3,32.0,29.29,SE,135,6.0,7.0,50,0.00,,,0.00,WeatherTracker,2013-03-15 07:55:00,
2013-03-15 03:00:00,48.9,32.0,29.29,SE,135,6.0,7.0,51,0.00,,,0.00,WeatherTracker,2013-03-15 08:00:00,
2013-03-15 03:10:00,48.6,33.8,29.26,SE,135,6.0,7.0,53,0.00,,,0.00,WeatherTracker,2013-03-15 08:10:00,
2013-03-15 03:15:00,48.2,33.8,29.26,SE,135,6.0,7.0,54,0.00,,,0.00,WeatherTracker,2013-03-15 08:15:00,
2013-03-15 03:25:00,47.7,32.0,29.26,SE,135,6.0,7.0,54,0.00,,,0.00,WeatherTracker,2013-03-15 08:25:00,
2013-03-15 07:58:00,43.7,33.8,29.21,North,-999,-999.0,0.0,68,0.00,,,0.00,WeatherTracker,2013-03-15 12:58:00,
2013-03-15 08:05:00,43.9,33.8,29.18,North,-999,-999.0,0.0,68,0.00,,,0.00,WeatherTracker,2013-03-15 13:05:00,
2013-03-15 08:10:00,44.2,33.8,29.18,North,-999,-999.0,0.0,68,0.00,,,0.00,WeatherTracker,2013-03-15 13:10:00,
2013-03-15 08:20:00,45.1,35.6,29.18,North,-999,-999.0,0.0,69,0.00,,,0.00,WeatherTracker,2013-03-15 13:20:00,
2013-03-15 08:25:00,45.9,37.4,29.18,North,-999,-999.0,0.0,70,0.00,,,0.00,WeatherTracker,2013-03-15 13:25:00,
2013-03-15 08:30:00,46.6,37.4,29.18,North,-999,-999.0,0.0,69,0.00,,,0.00,WeatherTracker,2013-03-15 13:30:00,
2013-03-15 08:40:00,48.0,39.2,29.18,North,-999,-999.0,0.0,70,0.00,,,0.00,WeatherTracker,2013-03-15 13:40:00,
2013-03-15 08:45:00,49.5,41.0,29.18,North,-999,-999.0,0.0,71,0.00,,,0.00,WeatherTracker,2013-03-15 13:45:00,
2013-03-15 08:50:00,51.6,44.6,29.21,North,-999,-999.0,0.0,74,0.00,,,0.00,WeatherTracker,2013-03-15 13:50:00,
2013-03-15 09:00:00,55.8,42.8,29.21,North,-999,-999.0,0.0,59,0.00,,,0.00,WeatherTracker,2013-03-15 14:00:00,
2013-03-15 09:10:00,58.3,39.2,29.18,North,-999,-999.0,0.0,49,0.00,,,0.00,WeatherTracker,2013-03-15 14:10:00,
2013-03-15 09:15:00,59.4,39.2,29.18,North,-999,-999.0,0.0,47,0.00,,,0.00,WeatherTracker,2013-03-15 14:15:00,
2013-03-15 09:25:00,61.3,41.0,29.18,North,-999,-999.0,0.0,45,0.00,,,0.00,WeatherTracker,2013-03-15 14:25:00,
2013-03-15 09:35:00,63.0,37.4,29.21,North,-999,-999.0,0.0,39,0.00,,,0.00,WeatherTracker,2013-03-15 14:35:00,
2013-03-15 09:40:00,63.9,37.4,29.21,North,-999,-999.0,0.0,37,0.00,,,0.00,WeatherTracker,2013-03-15 14:40:00,
2013-03-15 09:50:00,65.3,37.4,29.21,North,-999,-999.0,0.0,36,0.00,,,0.00,WeatherTracker,2013-03-15 14:50:00,
2013-03-15 09:55:00,66.2,37.4,29.21,North,-999,-999.0,0.0,35,0.00,,,0.00,WeatherTracker,2013-03-15 14:55:00,
2013-03-15 10:00:00,67.1,37.4,29.21,North,-999,-999.0,0.0,34,0.00,,,0.00,WeatherTracker,2013-03-15 15:00:00,
2013-03-15 10:10:00,69.4,37.4,29.18,North,-999,-999.0,0.0,32,0.00,,,0.00,WeatherTracker,2013-03-15 15:10:00,
2013-03-15 10:15:00,69.8,37.4,29.18,North,-999,-999.0,0.0,31,0.00,,,0.00,WeatherTracker,2013-03-15 15:15:00,
2013-03-15 10:25:00,71.1,37.4,29.18,North,-999,-999.0,0.0,29,0.00,,,0.00,WeatherTracker,2013-03-15 15:25:00,
2013-03-15 10:30:00,71.8,37.4,29.18,North,-999,-999.0,0.0,28,0.00,,,0.00,WeatherTracker,2013-03-15 15:30:00,
2013-03-15 10:35:00,72.3,37.4,29.18,North,-999,-999.0,0.0,27,0.00,,,0.00,WeatherTracker,2013-03-15 15:35:00,
2013-03-15 10:45:00,73.2,37.4,29.18,North,-999,-999.0,0.0,26,0.00,,,0.00,WeatherTracker,2013-03-15 15:45:00,
2013-03-15 10:50:00,73.4,35.6,29.18,North,-999,-999.0,0.0,25,0.00,,,0.00,WeatherTracker,2013-03-15 15:50:00,
2013-03-15 11:00:00,74.3,37.4,29.18,North,-999,-999.0,0.0,25,0.00,,,0.00,WeatherTracker,2013-03-15 16:00:00,
2013-03-15 11:05:00,74.7,35.6,29.18,North,-999,-999.0,0.0,24,0.00,,,0.00,WeatherTracker,2013-03-15 16:05:00,
2013-03-15 11:15:00,75.6,35.6,29.18,North,-999,-999.0,0.0,23,0.00,,,0.00,WeatherTracker,2013-03-15 16:15:00,
2013-03-15 11:20:00,75.9,35.6,29.18,North,-999,-999.0,0.0,23,0.00,,,0.00,WeatherTracker,2013-03-15 16:20:00,
2013-03-15 11:30:00,77.0,37.4,29.18,North,-999,-999.0,0.0,23,0.00,,,0.00,WeatherTracker,2013-03-15 16:30:00,
2013-03-15 11:35:00,77.2,35.6,29.18,North,-999,-999.0,0.0,22,0.00,,,0.00,WeatherTracker,2013-03-15 16:35:00,
2013-03-15 11:45:00,77.9,37.4,29.18,North,-999,-999.0,0.0,22,0.00,,,0.00,WeatherTracker,2013-03-15 16:45:00,
2013-03-15 11:55:00,77.9,37.4,29.18,North,-999,-999.0,0.0,22,0.00,,,0.00,WeatherTracker,2013-03-15 16:55:00,
2013-03-15 12:00:00,77.9,37.4,29.18,North,-999,-999.0,0.0,22,0.00,,,0.00,WeatherTracker,2013-03-15 17:00:00,
2013-03-15 12:10:00,76.6,35.6,29.15,North,-999,-999.0,0.0,23,0.00,,,0.00,WeatherTracker,2013-03-15 17:10:00,
2013-03-15 12:15:00,76.6,35.6,29.15,North,-999,-999.0,0.0,23,0.00,,,0.00,WeatherTracker,2013-03-15 17:15:00,
2013-03-15 12:20:00,77.4,35.6,29.15,North,-999,-999.0,0.0,22,0.00,,,0.00,WeatherTracker,2013-03-15 17:20:00,
2013-03-15 12:30:00,77.9,37.4,29.15,North,-999,-999.0,0.0,22,0.00,,,0.00,WeatherTracker,2013-03-15 17:30:00,
2013-03-15 12:40:00,74.7,37.4,29.15,North,-999,-999.0,0.0,26,0.00,,,0.00,WeatherTracker,2013-03-15 17:40:00,
2013-03-15 12:45:00,76.5,37.4,29.15,North,-999,-999.0,0.0,25,0.00,,,0.00,WeatherTracker,2013-03-15 17:45:00,
2013-03-15 12:55:00,75.2,41.0,29.15,North,-999,-999.0,0.0,28,0.00,,,0.00,WeatherTracker,2013-03-15 17:55:00,
2013-03-15 13:00:00,75.4,39.2,29.15,North,-999,-999.0,0.0,27,0.00,,,0.00,WeatherTracker,2013-03-15 18:00:00,
2013-03-15 13:05:00,76.5,35.6,29.15,North,-999,-999.0,0.0,23,0.00,,,0.00,WeatherTracker,2013-03-15 18:05:00,
2013-03-15 13:10:00,77.9,37.4,29.15,North,-999,-999.0,0.0,23,0.00,,,0.00,WeatherTracker,2013-03-15 18:10:00,
2013-03-15 13:20:00,79.2,37.4,29.12,North,-999,-999.0,0.0,22,0.00,,,0.00,WeatherTracker,2013-03-15 18:20:00,
2013-03-15 13:25:00,80.6,39.2,29.12,North,-999,-999.0,0.0,22,0.00,,,0.00,WeatherTracker,2013-03-15 18:25:00,
2013-03-15 13:30:00,81.3,37.4,29.12,North,-999,-999.0,0.0,21,0.00,,,0.00,WeatherTracker,2013-03-15 18:30:00,
2013-03-15 13:40:00,81.5,39.2,29.12,North,-999,-999.0,0.0,21,0.00,,,0.00,WeatherTracker,2013-03-15 18:40:00,
2013-03-15 13:45:00,81.5,37.4,29.12,North,-999,-999.0,0.0,20,0.00,,,0.00,WeatherTracker,2013-03-15 18:45:00,
2013-03-15 13:55:00,82.2,37.4,29.12,North,-999,-999.0,0.0,20,0.00,,,0.00,WeatherTracker,2013-03-15 18:55:00,
2013-03-15 14:00:00,81.9,37.4,29.12,North,-999,-999.0,0.0,20,0.00,,,0.00,WeatherTracker,2013-03-15 19:00:00,
2013-03-15 14:05:00,82.8,37.4,29.09,North,-999,-999.0,0.0,20,0.00,,,0.00,WeatherTracker,2013-03-15 19:05:00,
2013-03-15 14:15:00,84.0,37.4,29.09,North,-999,-999.0,0.0,19,0.00,,,0.00,WeatherTracker,2013-03-15 19:15:00,
2013-03-15 14:20:00,84.2,37.4,29.09,North,-999,-999.0,0.0,19,0.00,,,0.00,WeatherTracker,2013-03-15 19:20:00,
2013-03-15 14:30:00,84.7,37.4,29.09,North,-999,-999.0,0.0,19,0.00,,,0.00,WeatherTracker,2013-03-15 19:30:00,
2013-03-15 14:35:00,85.6,37.4,29.09,North,-999,-999.0,0.0,18,0.00,,,0.00,WeatherTracker,2013-03-15 19:35:00,
2013-03-15 14:40:00,86.0,37.4,29.09,North,-999,-999.0,0.0,18,0.00,,,0.00,WeatherTracker,2013-03-15 19:40:00,
2013-03-15 14:50:00,86.0,37.4,29.09,North,-999,-999.0,0.0,18,0.00,,,0.00,WeatherTracker,2013-03-15 19:50:00,
2013-03-15 14:55:00,86.5,37.4,29.09,North,-999,-999.0,0.0,18,0.00,,,0.00,WeatherTracker,2013-03-15 19:55:00,
2013-03-15 15:05:00,85.6,33.8,29.06,North,-999,-999.0,0.0,16,0.00,,,0.00,WeatherTracker,2013-03-15 20:05:00,
2013-03-15 15:10:00,86.4,37.4,29.06,North,-999,-999.0,0.0,18,0.00,,,0.00,WeatherTracker,2013-03-15 20:10:00,
2013-03-15 15:15:00,86.9,39.2,29.06,North,-999,-999.0,0.0,18,0.00,,,0.00,WeatherTracker,2013-03-15 20:15:00,
2013-03-15 15:25:00,86.7,35.6,29.06,North,-999,-999.0,0.0,16,0.00,,,0.00,WeatherTracker,2013-03-15 20:25:00,
2013-03-15 15:30:00,86.7,35.6,29.06,North,-999,-999.0,0.0,16,0.00,,,0.00,WeatherTracker,2013-03-15 20:30:00,
2013-03-15 15:40:00,86.0,33.8,29.06,North,-999,-999.0,0.0,16,0.00,,,0.00,WeatherTracker,2013-03-15 20:40:00,
2013-03-15 15:45:00,86.4,35.6,29.06,North,-999,-999.0,0.0,16,0.00,,,0.00,WeatherTracker,2013-03-15 20:45:00,
2013-03-15 15:55:00,85.3,33.8,29.06,North,-999,-999.0,0.0,16,0.00,,,0.00,WeatherTracker,2013-03-15 20:55:00,
2013-03-15 16:00:00,84.7,33.8,29.06,North,-999,-999.0,0.0,16,0.00,,,0.00,WeatherTracker,2013-03-15 21:00:00,
2013-03-15 16:10:00,84.9,33.8,29.06,North,-999,-999.0,0.0,16,0.00,,,0.00,WeatherTracker,2013-03-15 21:10:00,
2013-03-15 16:15:00,84.2,33.8,29.06,North,-999,-999.0,0.0,16,0.00,,,0.00,WeatherTracker,2013-03-15 21:15:00,
2013-03-15 16:25:00,84.0,33.8,29.03,North,-999,-999.0,0.0,16,0.00,,,0.00,WeatherTracker,2013-03-15 21:25:00,
2013-03-15 16:35:00,84.0,33.8,29.06,North,-999,-999.0,0.0,16,0.00,,,0.00,WeatherTracker,2013-03-15 21:35:00,
2013-03-15 16:40:00,83.7,33.8,29.06,North,-999,-999.0,0.0,16,0.00,,,0.00,WeatherTracker,2013-03-15 21:40:00,
2013-03-15 16:50:00,82.8,32.0,29.03,North,-999,-999.0,0.0,16,0.00,,,0.00,WeatherTracker,2013-03-15 21:50:00,
2013-03-15 16:55:00,82.6,32.0,29.03,North,-999,-999.0,0.0,16,0.00,,,0.00,WeatherTracker,2013-03-15 21:55:00,
2013-03-15 17:00:00,82.6,32.0,29.03,North,-999,-999.0,0.0,16,0.00,,,0.00,WeatherTracker,2013-03-15 22:00:00,
2013-03-15 17:10:00,82.0,33.8,29.03,North,-999,-999.0,0.0,17,0.00,,,0.00,WeatherTracker,2013-03-15 22:10:00,
2013-03-15 17:15:00,82.6,32.0,29.03,North,-999,-999.0,0.0,16,0.00,,,0.00,WeatherTracker,2013-03-15 22:15:00,
2013-03-15 17:25:00,83.5,30.2,29.03,North,-999,-999.0,0.0,14,0.00,,,0.00,WeatherTracker,2013-03-15 22:25:00,
2013-03-15 17:30:00,83.8,30.2,29.03,North,-999,-999.0,0.0,14,0.00,,,0.00,WeatherTracker,2013-03-15 22:30:00,
2013-03-15 17:35:00,84.0,30.2,29.06,North,-999,-999.0,0.0,14,0.00,,,0.00,WeatherTracker,2013-03-15 22:35:00,
2013-03-15 17:40:00,83.8,33.8,29.06,North,-999,-999.0,0.0,16,0.00,,,0.00,WeatherTracker,2013-03-15 22:40:00,
2013-03-15 17:45:00,83.1,30.2,29.06,North,-999,-999.0,0.0,14,0.00,,,0.00,WeatherTracker,2013-03-15 22:45:00,
2013-03-15 17:50:00,82.6,28.4,29.06,North,-999,-999.0,0.0,14,0.00,,,0.00,WeatherTracker,2013-03-15 22:50:00,
2013-03-15 18:00:00,81.9,33.8,29.06,North,-999,-999.0,0.0,17,0.00,,,0.00,WeatherTracker,2013-03-15 23:00:00,
2013-03-15 18:05:00,81.7,33.8,29.03,North,-999,-999.0,0.0,17,0.00,,,0.00,WeatherTracker,2013-03-15 23:05:00,
2013-03-15 18:10:00,81.9,33.8,29.03,North,-999,-999.0,0.0,17,0.00,,,0.00,WeatherTracker,2013-03-15 23:10:00,
2013-03-15 18:20:00,81.3,32.0,29.03,North,-999,-999.0,0.0,17,0.00,,,0.00,WeatherTracker,2013-03-15 23:20:00,
2013-03-15 18:25:00,81.1,32.0,29.03,North,-999,-999.0,0.0,17,0.00,,,0.00,WeatherTracker,2013-03-15 23:25:00,
2013-03-15 18:35:00,80.2,32.0,29.03,North,-999,-999.0,0.0,17,0.00,,,0.00,WeatherTracker,2013-03-15 23:35:00,
2013-03-15 18:40:00,79.9,32.0,29.03,North,-999,-999.0,0.0,17,0.00,,,0.00,WeatherTracker,2013-03-15 23:40:00,
2013-03-15 18:45:00,80.1,32.0,29.03,North,-999,-999.0,0.0,17,0.00,,,0.00,WeatherTracker,2013-03-15 23:45:00,
2013-03-15 18:55:00,79.3,35.6,29.03,North,-999,-999.0,0.0,20,0.00,,,0.00,WeatherTracker,2013-03-15 23:55:00,
2013-03-15 19:00:00,79.0,33.8,29.03,North,-999,-999.0,0.0,20,0.00,,,0.00,WeatherTracker,2013-03-16 00:00:00,
2013-03-15 19:10:00,77.9,33.8,29.03,North,-999,-999.0,0.0,20,0.00,,,0.00,WeatherTracker,2013-03-16 00:10:00,
2013-03-15 19:15:00,77.5,35.6,29.03,North,-999,-999.0,0.0,21,0.00,,,0.00,WeatherTracker,2013-03-16 00:15:00,
2013-03-15 19:25:00,76.6,33.8,29.03,North,-999,-999.0,0.0,21,0.00,,,0.00,WeatherTracker,2013-03-16 00:25:00,
2013-03-15 19:30:00,76.3,33.8,29.03,North,-999,-999.0,0.0,21,0.00,,,0.00,WeatherTracker,2013-03-16 00:30:00,
2013-03-15 19:40:00,75.6,33.8,29.03,North,-999,-999.0,0.0,22,0.00,,,0.00,WeatherTracker,2013-03-16 00:40:00,
2013-03-15 19:50:00,75.2,33.8,29.03,North,-999,-999.0,0.0,22,0.00,,,0.00,WeatherTracker,2013-03-16 00:50:00,
2013-03-15 19:55:00,75.2,33.8,29.03,North,-999,-999.0,0.0,22,0.00,,,0.00,WeatherTracker,2013-03-16 00:55:00,
2013-03-15 20:05:00,74.8,33.8,29.03,North,-999,-999.0,0.0,23,0.00,,,0.00,WeatherTracker,2013-03-16 01:05:00,
2013-03-15 20:10:00,74.7,35.6,29.03,North,-999,-999.0,0.0,24,0.00,,,0.00,WeatherTracker,2013-03-16 01:10:00,
2013-03-15 20:20:00,74.1,35.6,29.03,North,-999,-999.0,0.0,25,0.00,,,0.00,WeatherTracker,2013-03-16 01:20:00,
2013-03-15 20:30:00,73.9,37.4,29.03,North,-999,-999.0,0.0,26,0.00,,,0.00,WeatherTracker,2013-03-16 01:30:00,
2013-03-15 20:35:00,73.9,37.4,29.03,North,-999,-999.0,0.0,26,0.00,,,0.00,WeatherTracker,2013-03-16 01:35:00,
2013-03-15 20:40:00,73.6,37.4,29.03,North,-999,-999.0,0.0,26,0.00,,,0.00,WeatherTracker,2013-03-16 01:40:00,
2013-03-15 20:50:00,73.2,37.4,29.03,North,-999,-999.0,0.0,27,0.00,,,0.00,WeatherTracker,2013-03-16 01:50:00,
2013-03-15 20:55:00,73.0,37.4,29.03,North,-999,-999.0,0.0,28,0.00,,,0.00,WeatherTracker,2013-03-16 01:55:00,
2013-03-15 21:05:00,72.3,37.4,29.03,North,-999,-999.0,0.0,28,0.00,,,0.00,WeatherTracker,2013-03-16 02:05:00,
2013-03-15 21:15:00,71.8,37.4,29.03,North,-999,-999.0,0.0,29,0.00,,,0.00,WeatherTracker,2013-03-16 02:15:00,
2013-03-15 21:20:00,71.6,37.4,29.03,North,-999,-999.0,0.0,29,0.00,,,0.00,WeatherTracker,2013-03-16 02:20:00,
2013-03-15 21:30:00,71.1,37.4,29.03,North,-999,-999.0,0.0,30,0.00,,,0.00,WeatherTracker,2013-03-16 02:30:00,
2013-03-15 21:35:00,70.9,37.4,29.03,North,-999,-999.0,0.0,30,0.00,,,0.00,WeatherTracker,2013-03-16 02:35:00,
2013-03-15 21:40:00,70.7,37.4,29.03,North,-999,-999.0,0.0,30,0.00,,,0.00,WeatherTracker,2013-03-16 02:40:00,
2013-03-15 21:50:00,70.3,37.4,29.03,North,-999,-999.0,0.0,30,0.00,,,0.00,WeatherTracker,2013-03-16 02:50:00,
2013-03-15 21:55:00,70.3,37.4,29.03,North,-999,-999.0,0.0,30,0.00,,,0.00,WeatherTracker,2013-03-16 02:55:00,
2013-03-15 22:05:00,70.0,35.6,29.03,North,-999,-999.0,0.0,29,0.00,,,0.00,WeatherTracker,2013-03-16 03:05:00,
2013-03-15 22:10:00,70.0,35.6,29.03,North,-999,-999.0,0.0,29,0.00,,,0.00,WeatherTracker,2013-03-16 03:10:00,
2013-03-15 22:15:00,69.8,35.6,29.03,North,-999,-999.0,0.0,29,0.00,,,0.00,WeatherTracker,2013-03-16 03:15:00,
2013-03-15 22:20:00,69.8,35.6,29.03,North,-999,-999.0,0.0,28,0.00,,,0.00,WeatherTracker,2013-03-16 03:20:00,
2013-03-15 22:25:00,69.8,33.8,29.03,North,-999,-999.0,0.0,27,0.00,,,0.00,WeatherTracker,2013-03-16 03:25:00,
2013-03-15 22:30:00,69.6,35.6,29.03,North,-999,-999.0,0.0,28,0.00,,,0.00,WeatherTracker,2013-03-16 03:30:00,
2013-03-15 22:40:00,69.6,33.8,29.00,North,-999,-999.0,0.0,27,0.00,,,0.00,WeatherTracker,2013-03-16 03:40:00,
2013-03-15 22:45:00,70.0,33.8,29.00,North,-999,-999.0,0.0,26,0.00,,,0.00,WeatherTracker,2013-03-16 03:45:00,
2013-03-15 22:50:00,70.0,33.8,29.00,North,-999,-999.0,0.0,26,0.00,,,0.00,WeatherTracker,2013-03-16 03:50:00,
2013-03-15 23:00:00,69.8,33.8,29.00,North,-999,-999.0,0.0,26,0.00,,,0.00,WeatherTracker,2013-03-16 04:00:00,
2013-03-15 23:05:00,69.6,33.8,29.00,North,-999,-999.0,0.0,26,0.00,,,0.00,WeatherTracker,2013-03-16 04:05:00,
2013-03-15 23:10:00,69.4,33.8,29.00,North,-999,-999.0,0.0,26,0.00,,,0.00,WeatherTracker,2013-03-16 04:10:00,
2013-03-15 23:15:00,69.1,33.8,29.00,North,-999,-999.0,0.0,26,0.00,,,0.00,WeatherTracker,2013-03-16 04:15:00,
2013-03-15 23:20:00,68.7,32.0,29.00,North,-999,-999.0,0.0,26,0.00,,,0.00,WeatherTracker,2013-03-16 04:20:00,
2013-03-15 23:25:00,68.5,33.8,29.00,North,-999,-999.0,0.0,27,0.00,,,0.00,WeatherTracker,2013-03-16 04:25:00,
2013-03-15 23:35:00,68.2,33.8,29.03,North,-999,-999.0,0.0,27,0.00,,,0.00,WeatherTracker,2013-03-16 04:35:00,
2013-03-15 23:40:00,68.0,33.8,29.03,North,-999,-999.0,0.0,27,0.00,,,0.00,WeatherTracker,2013-03-16 04:40:00,
2013-03-15 23:50:00,67.8,33.8,29.00,North,-999,-999.0,0.0,29,0.00,,,0.00,WeatherTracker,2013-03-16 04:50:00,
2013-03-15 23:55:00,67.6,33.8,29.00,North,-999,-999.0,0.0,29,0.00,,,0.00,WeatherTracker,2013-03-16 04:55:00,